This demonstration page uses our WeatherBlox Daily Observations layout. Learn more.

Left ArrowRight Arrow

44.89941, -97.11507

Hourly Observations for July 5, 2022

Temp ( °F °C ) Dew Point ( °F °C ) Humidity (%) Winds ( mph kmh ) Pressure ( in mb ) Visibility ( mi km ) Precip ( " mm )
12:53 am 00:53 Mostly Cloudy 73 22.8 69 20.6 87 87 Calm 29.84 1011 10 16 0.00 0.00
1:53 am 01:53 Mostly Cloudy 71 21.7 69 20.6 94 94 NNW 3 6 29.84 1011 10 16 0.00 0.00
2:53 am 02:53 Mostly Cloudy 71 21.7 68 20 90 90 N 3 6 29.84 1010 10 16 0.00 0.00
3:53 am 03:53 Partly Cloudy 71 21.7 67 19.4 87 87 NNW 3 6 29.85 1011 10 16 0.00 0.00
4:53 am 04:53 Cloudy 70 21.1 67 19.4 90 90 N 5 7 29.85 1011 10 16 0.00 0.00
5:53 am 05:53 Sunny 68 20 66 18.9 93 93 N 3 6 29.85 1011 10 16 0.00 0.00
6:53 am 06:53 Sunny 70 21.1 67 19.4 90 90 N 3 6 29.85 1011 10 16 0.00 0.00
7:53 am 07:53 Partly Cloudy 74 23.3 68 20 82 82 NE 8 13 29.86 1011 10 16 0.00 0.00
8:53 am 08:53 Sunny 78 25.6 67 19.4 69 69 NE 14 22 29.86 1011 10 16 0.00 0.00
9:53 am 09:53 Sunny 80 26.7 66 18.9 62 62 ENE 13 20 29.85 1011 10 16 0.00 0.00
10:53 am 10:53 Sunny 82 27.8 66 18.9 58 58 ENE 9 15 29.88 1012 10 16 0.00 0.00
11:53 am 11:53 Sunny 82 27.8 67 19.4 60 60 ENE 13 20 29.87 1011 10 16 0.00 0.00
12:53 pm 12:53 Mostly Sunny 79 26.1 67 19.4 67 67 NNE 13 20 29.90 1012 10 16 0.00 0.00
1:53 pm 13:53 Sunny 76 24.4 67 19.4 74 74 NNE 15 24 29.90 1013 10 16 0.00 0.00
2:50 pm 14:50 Cloudy with Nearby Thunderstorms 72 22 70 21 94 94 N 15 24 29.91 1013 5 8 0.02 0.51
2:53 pm 14:53 Mostly Cloudy with Nearby Thunderstorms 72 22.2 69 20.6 91 91 N 16 26 29.96 1015 5 8 0.02 0.51
3:05 pm 15:05 Cloudy with Light Rain 72 22.2 69 20.6 91 91 N 20 31 29.95 1014 9 14 0.02 0.51
3:41 pm 15:41 Mostly Cloudy with Nearby Thunderstorms 71 21.7 69 20.6 94 94 NNW 20 31 29.96 1015 6 10 0.09 2.29
3:53 pm 15:53 Mostly Cloudy with Nearby Thunderstorms 71 21.7 69 20.6 94 94 NNW 21 33 30.01 1016 6 10 0.10 2.54
4:12 pm 16:12 Cloudy with Rain 70 21.1 69 20.6 97 97 ENE 18 30 29.87 1011 3 5 0.06 1.52
4:24 pm 16:24 Cloudy with Light Rain 70 21.1 68 20 93 93 ENE 16 26 29.83 1010 8 13 0.07 1.78
4:53 pm 16:53 Sunny 71 21.7 67 19.4 87 87 E 17 28 29.73 1007 10 16 0.07 1.78
5:53 pm 17:53 Sunny 72 22.2 65 18.3 79 79 ESE 5 7 29.78 1008 10 16 0.00 0.00
6:18 pm 18:18 Sunny 72 22.2 67 19.4 84 84 NE 7 11 29.79 1009 10 16 0.00 0.00
6:53 pm 18:53 Mostly Sunny 73 22.8 68 20 84 84 NE 14 22 29.85 1011 10 16 0.00 0.00
7:53 pm 19:53 Sunny 74 23.3 68 20 82 82 NE 10 17 29.86 1011 10 16 0.00 0.00
8:53 pm 20:53 Mostly Cloudy 72 22.2 69 20.6 91 91 NE 6 9 29.89 1012 10 16 0.00 0.00
9:53 pm 21:53 Mostly Clear 71 21.7 68 20 90 90 NE 6 9 29.91 1013 10 16 0.00 0.00
10:20 pm 22:20 Mostly Clear 70 21.1 68 20 93 93 ENE 6 9 29.88 1012 10 16 0.00 0.00
10:53 pm 22:53 Clear 69 20.6 68 20 96 96 NE 5 7 29.91 1013 8 13 0.00 0.00
11:36 pm 23:36 Clear with Mist and Fog 67 19.4 66 18.9 97 97 NNE 3 6 29.90 1012 3 4 0.00 0.00
11:43 pm 23:43 Clear with Mist and Fog 66 18.9 66 18.9 100 100 NNE 3 6 29.89 1012 3 5 0.00 0.00
11:51 pm 23:51 Clear with Mist and Fog 66 19 66 19 100 100 Calm 29.90 1013 2 3 0.00 0.00
11:53 pm 23:53 Clear with Mist and Fog 67 19.4 67 19.4 100 100 Calm 29.92 1013 2 3 0.00 0.00

Powered by AerisWeather